Погода в Тимонине

Россия / Архангельская область     61°31′02″N   41°57′58″E
темп.,
°C
ветер,
м/с
пор.,
м/с
влажн.,
%
обл.,
%
осадки,
мм/ч
давл.,
гПа
погр.,
м
1 марта, пн
пн100:00−5зюз2694100 0.0 1016230
03:00−7юз3109383 0.0 1015309
06:00−6юз4119393 0.0 1012378
09:00−3зюз4119396 0.1 1010646
12:000зюз41098100 0.3 1006624
15:00+1зюз51298100 2.9 1003655
18:00+1з51298100 2.0 999667
21:00+1з51298100 3.6 997678
2 марта, вт
вт200:00+1сз4997100 0.6 996569
03:00−1зсз3897100 0.8 996357
06:00−1сз31092100 0.1 995699
09:00−2зсз41088100 0.1 996905
12:00−1зсз598898 0.1 995949
15:00−2зсз6128899 0.4 9971034
18:00−5сз61288100 0.2 9981012
21:00−6сз61486100 0.3 1001815
3 марта, ср
ср300:00−7сз4128998 0.0 1002611
03:00−8зсз5129093 0.1 1004543
06:00−9зсз5139094 0.0 1003541
09:00−8зсз6138889 0.1 1004613
12:00−5зсз6128257 0.0 1003834
15:00−4зсз5108364 0.0 1003930
18:00−6зсз4128892 0.0 1002644
21:00−9з399264 0.0 1002237
4 марта, чт
чт400:00−11зюз259627 0.0 99991
03:00−10ююв239658 0.0 99581
06:00−8юв4995100 1.7 989372
09:00−6вюв3696100 5.4 986307
12:00−3сз248999 0.5 984615
15:00−6ссв5109399 1.3 985587
18:00−9с61291100 0.4 988784
21:00−13ссз51289100 0.6 992580
5 марта, пт
пт500:00−16сз41192100 0.0 995453
03:00−17сз3993100 0.0 998413
06:00−19сз389470 0.0 1001252
09:00−17сз369135 0.0 1002254
12:00−13зсз248725 0.0 1004400
15:00−12зсз358962 0.1 1006519
18:00−15сз269399 0.1 1007366
21:00−20сз239689 0.1 100951